Location: Nora Junction
(43.1400°N, 93.0163°W)
Time: 01:14:34
(UTC+00:00)

Tsikada Rocket - Pass Details

Date: 18 November 2025
Orbit: 957 x 1008 km, 82.9° (Epoch: 08 December)

Event Time Altitude Azimuth Distance (km) Brightness Sun altitude
Rises 23:27:32 0° 350° (N) 3,746 7.0 -8.0°
Reaches altitude 10° 23:30:06 10° 348° (NNW) 2,788 6.3 -8.4°
Maximum altitude 23:36:28 73° 266° (W) 1,044 4.4 -9.5°
Drops below altitude 10° 23:42:45 10° 183° (S) 2,743 6.6 -10.6°
Sets 23:45:15 0° 181° (S) 3,680 7.3 -11.0°
